This is the latest recevied weather packets stored in our database for station/object JR5YHL-13. If no packets are shown the sender has not sent any weather packets the latest 10 day(s).
| Time | Temp. | Humidity | Pressure | Rain* | Wind** | Luminosity | Snow |
|---|---|---|---|---|---|---|---|
| 1777415458 | 19.44° C | 98% | 1013.7 hPa | 0 mm | - | - | - |
| 1777414860 | 18.89° C | 99% | 1013.8 hPa | 0 mm | - | - | - |
| 1777414262 | 18.33° C | 99% | 1013.6 hPa | 0 mm | - | - | - |
| 1777413665 | 17.78° C | 99% | 1013.5 hPa | 0 mm | - | - | - |
| 1777413067 | 17.22° C | 99% | 1013.4 hPa | 0 mm | - | - | - |
| 1777412469 | 17.22° C | 99% | 1013.4 hPa | 0 mm | - | - | - |
| 1777411871 | 17.22° C | 99% | 1013.2 hPa | 0 mm | - | - | - |
| 1777411273 | 17.22° C | 99% | 1013.1 hPa | 0 mm | - | - | - |
| 1777410676 | 16.67° C | 99% | 1013.1 hPa | 0 mm | - | - | - |
| 1777410078 | 16.67° C | 99% | 1013.1 hPa | 0 mm | - | - | - |
| 1777409480 | 16.67° C | 99% | 1012.9 hPa | 0 mm | - | - | - |
| 1777408883 | 16.67° C | 99% | 1012.6 hPa | 0 mm | - | - | - |
| 1777408285 | 16.11° C | 99% | 1012.6 hPa | 0 mm | - | - | - |
| 1777407687 | 16.67° C | 99% | 1012.5 hPa | 0 mm | - | - | - |
| 1777407089 | 16.67° C | 99% | 1012.4 hPa | 0 mm | - | - | - |
| 1777406491 | 16.67° C | 99% | 1012.3 hPa | 0 mm | - | - | - |
| 1777405894 | 16.67° C | 99% | 1012.2 hPa | 0 mm | - | - | - |
| 1777405296 | 16.67° C | 99% | 1012.1 hPa | 0 mm | - | - | - |
| 1777404698 | 16.67° C | 99% | 1012 hPa | 0 mm | - | - | - |
| 1777404101 | 16.67° C | 99% | 1012.1 hPa | 0 mm | - | - | - |
| 1777403503 | 16.67° C | 99% | 1012.1 hPa | 0 mm | - | - | - |
| 1777402905 | 16.67° C | 99% | 1011.9 hPa | 0 mm | - | - | - |
| 1777402307 | 17.22° C | 99% | 1011.7 hPa | 0 mm | - | - | - |
| 1777401710 | 17.22° C | 99% | 1011.6 hPa | 0 mm | - | - | - |
| 1777401112 | 17.22° C | 99% | 1011.7 hPa | 0 mm | - | - | - |
* Rain latest hour (hover to see other rain measurements)
** Current wind speed in m/s (hover to see current wind gust speed)